Location: Newark
(47.5833°N, 8.1500°E)
Time: 17:35:07
(UTC+00:00)

Transit 2A - Pass Details

Date: 01 November 2020
Orbit: 595 x 964 km, 66.7° (Epoch: 29 November)

Event Time Altitude Azimuth Distance (km) Brightness Sun altitude
Rises 01:01:14 0° 241° (WSW) 3,640 - -49.8°
Reaches altitude 10° 01:04:00 10° 250° (WSW) 2,698 - -49.5°
Maximum altitude 01:09:53 38° 317° (NW) 1,414 - -48.8°
Exits shadow 01:15:35 10° 25° (NNE) 2,609 9.2 -48.1°
Drops below altitude 10° 01:15:35 10° 25° (NNE) 2,610 9.2 -48.1°
Sets 01:18:15 0° 33° (NNE) 3,509 10.1 -47.7°
